Liberal, KS

1:31 AM CST on January 17, 2018 (GMT -0600)
Liberal Municipal

Weather History for KLBL - June, 2013

Change the Weather History Date:

Saturday, June 8, 2013

  Actual Average Record
Temperature  
Mean Temperature 73 °F -  
Max Temperature 87 °F 87 °F 104 °F (1985)
Min Temperature 59 °F 60 °F 42 °F (2007)
Cooling Degree Days 8    
Growing Degree Days 23 (Base 50)    
Moisture  
Dew Point 56 °F    
Average Humidity 59    
Maximum Humidity 77    
Minimum Humidity 40    
Precipitation  
Precipitation 0.01 in - - ()
Sea Level Pressure  
Sea Level Pressure 29.82 in    
Wind  
Wind Speed 16 mph (South)    
Max Wind Speed 30 mph    
Max Gust Speed 39 mph    
Visibility 10 miles    
Events Thunderstorm    
Averages and records for this station are not official NWS values.
T = Trace of Precipitation, MM = Missing Value Source: NWS Daily Summary

Daily Weather History Graph

Daily Weather History Graph

Search for Another Location

Airport or City:

Trip Planner

Search our weather history database for the weather conditions in past years. The results will help you decide how hot, cold, wet, or windy it might be!

Date:

Astronomy

Jun. 08, 2013 Rise Set
Actual Time 6:23 AM CDT 9:02 PM CDT
Civil Twilight 5:53 AM CDT 9:32 PM CDT
Nautical Twilight 5:15 AM CDT 10:11 PM CDT
Astronomical Twilight 4:32 AM CDT 10:53 PM CDT
Moon 6:31 AM CDT (6/8) 9:07 PM CDT (6/8)
Length of Visible Light 15h 39m
Length of Day
14h 38m
New Moon, 0% of the Moon is Illuminated
Jun 8
New Moon
Jun 16
First Quarter
Jun 23
Full
Jun 29
Last Quarter
Jul 8
New

Hourly Weather History & Observations

Time (CDT) Temp. Heat Index Dew Point Humidity Pressure Visibility Wind Dir Wind Speed Gust Speed Precip Events Conditions
12:15 AM 64.4 °F - 51.8 °F 64% 29.90 in 10.0 mi SSW 15.0 mph - N/A   Clear
12:35 AM 64.4 °F - 51.8 °F 64% 29.90 in 10.0 mi SSW 13.8 mph - N/A   Clear
12:55 AM 64.4 °F - 51.8 °F 64% 29.91 in 10.0 mi SW 12.7 mph - N/A   Clear
1:15 AM 64.4 °F - 51.8 °F 64% 29.91 in 10.0 mi SSW 13.8 mph - N/A   Clear
1:35 AM 64.4 °F - 51.8 °F 64% 29.90 in 10.0 mi SSW 11.5 mph - N/A   Clear
1:55 AM 64.4 °F - 51.8 °F 64% 29.89 in 10.0 mi SW 13.8 mph - N/A   Clear
2:15 AM 64.4 °F - 51.8 °F 64% 29.89 in 10.0 mi SW 12.7 mph - N/A   Clear
2:35 AM 64.4 °F - 51.8 °F 64% 29.88 in 10.0 mi SW 13.8 mph - N/A   Clear
2:55 AM 64.4 °F - 51.8 °F 64% 29.87 in 10.0 mi South 11.5 mph - N/A   Clear
3:15 AM 62.6 °F - 51.8 °F 68% 29.87 in 10.0 mi SE 9.2 mph - N/A   Clear
3:35 AM 60.8 °F - 51.8 °F 72% 29.86 in 10.0 mi SE 8.1 mph - N/A   Clear
3:55 AM 59.0 °F - 50.0 °F 72% 29.86 in 10.0 mi SE 11.5 mph - N/A   Clear
4:15 AM 60.8 °F - 51.8 °F 72% 29.86 in 10.0 mi SE 10.4 mph - N/A   Clear
4:35 AM 60.8 °F - 51.8 °F 72% 29.85 in 10.0 mi SE 12.7 mph - N/A   Clear
4:55 AM 60.8 °F - 51.8 °F 72% 29.85 in 10.0 mi SE 11.5 mph - N/A   Clear
5:15 AM 60.8 °F - 51.8 °F 72% 29.85 in 10.0 mi SE 13.8 mph - N/A   Clear
5:35 AM 59.0 °F - 51.8 °F 77% 29.84 in 10.0 mi SSE 10.4 mph - N/A   Clear
5:55 AM 59.0 °F - 51.8 °F 77% 29.83 in 10.0 mi SSE 12.7 mph - N/A   Clear
6:15 AM 59.0 °F - 51.8 °F 77% 29.83 in 10.0 mi SSE 12.7 mph - N/A   Clear
6:35 AM 59.0 °F - 51.8 °F 77% 29.83 in 10.0 mi South 11.5 mph - N/A   Clear
6:55 AM 59.0 °F - 51.8 °F 77% 29.84 in 10.0 mi SSW 10.4 mph - N/A   Clear
7:15 AM 60.8 °F - 53.6 °F 77% 29.83 in 10.0 mi South 12.7 mph - N/A   Clear
7:35 AM 62.6 °F - 53.6 °F 72% 29.82 in 10.0 mi South 18.4 mph - N/A   Clear
7:55 AM 64.4 °F - 55.4 °F 73% 29.81 in 10.0 mi South 19.6 mph - N/A   Clear
8:15 AM 64.4 °F - 55.4 °F 73% 29.81 in 10.0 mi South 20.7 mph 25.3 mph N/A   Clear
8:35 AM 64.4 °F - 55.4 °F 73% 29.81 in 10.0 mi South 19.6 mph - N/A   Clear
8:55 AM 66.2 °F - 57.2 °F 73% 29.81 in 10.0 mi SSW 20.7 mph 25.3 mph N/A   Clear
9:15 AM 66.2 °F - 57.2 °F 73% 29.80 in 10.0 mi SSW 24.2 mph 28.8 mph N/A   Clear
9:35 AM 68.0 °F - 57.2 °F 68% 29.79 in 10.0 mi South 21.9 mph - N/A   Clear
9:55 AM 69.8 °F - 57.2 °F 64% 29.79 in 10.0 mi South 20.7 mph 28.8 mph N/A   Clear
10:15 AM 71.6 °F - 59.0 °F 64% 29.78 in 10.0 mi South 24.2 mph 29.9 mph N/A   Clear
10:35 AM 75.2 °F - 59.0 °F 57% 29.78 in 10.0 mi South 26.5 mph 31.1 mph N/A   Clear
10:55 AM 75.2 °F - 57.2 °F 53% 29.77 in 10.0 mi South 27.6 mph 33.4 mph N/A   Clear
11:15 AM 77.0 °F - 57.2 °F 50% 29.77 in 10.0 mi South 28.8 mph 39.1 mph N/A   Clear
11:35 AM 78.8 °F - 59.0 °F 51% 29.77 in 10.0 mi South 26.5 mph 34.5 mph N/A   Clear
11:55 AM 80.6 °F 81.1 °F 59.0 °F 48% 29.77 in 10.0 mi SSW 27.6 mph 34.5 mph N/A   Clear
12:15 PM 80.6 °F 81.1 °F 59.0 °F 48% 29.77 in 10.0 mi SSW 24.2 mph 36.8 mph N/A   Clear
12:35 PM 80.6 °F 80.8 °F 57.2 °F 45% 29.76 in 10.0 mi SSW 28.8 mph 35.7 mph N/A   Clear
12:55 PM 82.4 °F 82.0 °F 57.2 °F 42% 29.75 in 10.0 mi SSW 29.9 mph 39.1 mph N/A   Clear
1:15 PM 82.4 °F 82.0 °F 57.2 °F 42% 29.75 in 10.0 mi SSW 27.6 mph 35.7 mph N/A   Clear
1:35 PM 84.2 °F 83.8 °F 59.0 °F 42% 29.74 in 10.0 mi SSW 27.6 mph 36.8 mph N/A   Clear
1:55 PM 86.0 °F 86.1 °F 60.8 °F 43% 29.75 in 10.0 mi SSW 23.0 mph 33.4 mph N/A   Clear
2:15 PM 84.2 °F 83.8 °F 59.0 °F 42% 29.74 in 10.0 mi SSW 23.0 mph 27.6 mph N/A   Partly Cloudy
2:35 PM 84.2 °F 83.5 °F 57.2 °F 40% 29.75 in 10.0 mi SSW 23.0 mph 29.9 mph N/A   Partly Cloudy
2:55 PM 87.8 °F 87.6 °F 60.8 °F 40% 29.75 in 10.0 mi SSW 24.2 mph 29.9 mph N/A   Clear
3:15 PM 87.8 °F 87.6 °F 60.8 °F 40% 29.74 in 10.0 mi South 21.9 mph 26.5 mph N/A   Clear
3:35 PM 87.8 °F 87.6 °F 60.8 °F 40% 29.74 in 10.0 mi South 18.4 mph 27.6 mph N/A   Clear
3:55 PM 87.8 °F 87.6 °F 60.8 °F 40% 29.74 in 10.0 mi SSW 19.6 mph 25.3 mph N/A   Clear
4:15 PM 84.2 °F 83.5 °F 57.2 °F 40% 29.74 in 10.0 mi SW 20.7 mph - N/A Thunderstorm Thunderstorm
4:35 PM 75.2 °F - 59.0 °F 57% 29.74 in 10.0 mi SSW 15.0 mph - 0.01 in Thunderstorm Thunderstorm
4:55 PM 78.8 °F - 62.6 °F 57% 29.72 in 10.0 mi South 23.0 mph 27.6 mph 0.01 in Thunderstorm Partly Cloudy
5:15 PM 80.6 °F 81.5 °F 60.8 °F 51% 29.71 in 10.0 mi SSW 19.6 mph - N/A Thunderstorm Thunderstorm
5:35 PM 82.4 °F 83.4 °F 62.6 °F 51% 29.72 in 8.0 mi SSW 20.7 mph 26.5 mph N/A Thunderstorm Thunderstorm
5:55 PM 87.8 °F 88.5 °F 62.6 °F 43% 29.72 in 10.0 mi SW 19.6 mph 28.8 mph N/A Thunderstorm Partly Cloudy
6:15 PM 78.8 °F - 60.8 °F 54% 29.74 in 10.0 mi ENE 15.0 mph 24.2 mph N/A Thunderstorm Mostly Cloudy
6:35 PM 77.0 °F - 57.2 °F 50% 29.76 in 10.0 mi ENE 15.0 mph - N/A   Mostly Cloudy
6:55 PM 78.8 °F - 60.8 °F 54% 29.78 in 10.0 mi ENE 8.1 mph - N/A Thunderstorm Mostly Cloudy
7:15 PM 80.6 °F 81.5 °F 60.8 °F 51% 29.80 in 10.0 mi NNE 10.4 mph - N/A   Mostly Cloudy
7:35 PM 80.6 °F 81.5 °F 60.8 °F 51% 29.80 in 10.0 mi NNE 19.6 mph 24.2 mph N/A   Mostly Cloudy
7:55 PM 78.8 °F - 57.2 °F 47% 29.82 in 10.0 mi North 23.0 mph 26.5 mph N/A   Clear
8:15 PM 78.8 °F - 57.2 °F 47% 29.84 in 10.0 mi NNE 19.6 mph 26.5 mph N/A   Clear
8:35 PM 75.2 °F - 55.4 °F 50% 29.84 in 10.0 mi NNE 16.1 mph - N/A   Clear
8:55 PM 73.4 °F - 55.4 °F 53% 29.84 in 10.0 mi NNE 15.0 mph - N/A   Clear
9:15 PM 73.4 °F - 55.4 °F 53% 29.86 in 10.0 mi ENE 9.2 mph - N/A   Clear
9:35 PM 71.6 °F - 55.4 °F 57% 29.88 in 10.0 mi NE 13.8 mph - N/A   Clear
9:55 PM 71.6 °F - 55.4 °F 57% 29.90 in 10.0 mi ENE 12.7 mph - N/A   Clear
10:15 PM 69.8 °F - 55.4 °F 60% 29.92 in 10.0 mi East 11.5 mph - N/A   Clear
10:35 PM 69.8 °F - 55.4 °F 60% 29.94 in 10.0 mi East 10.4 mph - N/A   Clear
10:55 PM 68.0 °F - 55.4 °F 64% 29.96 in 10.0 mi East 10.4 mph - N/A   Clear
11:15 PM 68.0 °F - 55.4 °F 64% 29.96 in 10.0 mi East 10.4 mph - N/A   Clear
11:35 PM 66.2 °F - 55.4 °F 68% 29.96 in 10.0 mi East 9.2 mph - N/A   Clear
11:55 PM 66.2 °F - 55.4 °F 68% 29.97 in 10.0 mi East 6.9 mph - N/A   Clear